Time,TemperatureF,DewpointF,PressureIn,WindDirection,WindDirectionDegrees,WindSpeedMPH,WindSpeedGustMPH,Humidity,HourlyPrecipIn,Conditions,Clouds,dailyrainin,SoftwareType,DateUTC
2013-02-13 00:02:00,10.0,7.0,-100.00,West,270,3.0,13.0,87,-99.99,,,-99.99,,2013-02-13 07:02:00,
2013-02-13 00:11:00,10.0,7.0,-100.00,West,270,3.0,13.0,87,-99.99,,,-99.99,,2013-02-13 07:11:00,
2013-02-13 00:21:00,10.0,7.0,-100.00,West,273,4.0,13.0,87,-99.99,,,-99.99,,2013-02-13 07:21:00,
2013-02-13 00:31:00,10.0,7.0,-100.00,West,277,4.0,14.0,87,-99.99,,,-99.99,,2013-02-13 07:31:00,
2013-02-13 00:41:00,10.0,7.0,-100.00,West,277,4.0,14.0,87,-99.99,,,-99.99,,2013-02-13 07:41:00,
2013-02-13 00:52:00,11.0,8.0,-100.00,WSW,247,3.0,15.0,87,-99.99,,,-99.99,,2013-02-13 07:52:00,
2013-02-13 01:01:00,11.0,8.0,-100.00,NW,313,5.0,14.0,87,-99.99,,,-99.99,,2013-02-13 08:01:00,
2013-02-13 01:11:00,11.0,8.0,-100.00,NW,313,5.0,14.0,87,-99.99,,,-99.99,,2013-02-13 08:11:00,
2013-02-13 01:21:00,10.0,7.0,-100.00,West,280,4.0,13.0,87,-99.99,,,-99.99,,2013-02-13 08:21:00,
2013-02-13 01:31:00,10.0,7.0,-100.00,NW,316,8.0,22.0,87,-99.99,,,-99.99,,2013-02-13 08:31:00,
2013-02-13 01:43:00,10.0,7.0,-100.00,NW,316,8.0,22.0,87,-99.99,,,-99.99,,2013-02-13 08:43:00,
2013-02-13 01:52:00,11.0,8.0,-100.00,NW,308,8.0,19.0,87,-99.99,,,-99.99,,2013-02-13 08:52:00,
2013-02-13 02:01:00,11.0,8.0,-100.00,NW,314,9.0,22.0,88,-99.99,,,-99.99,,2013-02-13 09:01:00,
2013-02-13 02:11:00,11.0,8.0,-100.00,NW,314,9.0,22.0,88,-99.99,,,-99.99,,2013-02-13 09:11:00,
2013-02-13 02:21:00,11.0,8.0,-100.00,NW,324,13.0,26.0,88,-99.99,,,-99.99,,2013-02-13 09:21:00,
2013-02-13 02:31:00,11.0,8.0,-100.00,NW,318,11.0,22.0,88,-99.99,,,-99.99,,2013-02-13 09:31:00,
2013-02-13 02:41:00,11.0,8.0,-100.00,NW,318,11.0,22.0,88,-99.99,,,-99.99,,2013-02-13 09:41:00,
2013-02-13 02:52:00,11.0,8.0,-100.00,NW,322,11.0,26.0,88,-99.99,,,-99.99,,2013-02-13 09:52:00,
2013-02-13 03:01:00,11.0,8.0,-100.00,NW,324,13.0,25.0,88,-99.99,,,-99.99,,2013-02-13 10:01:00,
2013-02-13 03:11:00,11.0,8.0,-100.00,NW,324,13.0,25.0,88,-99.99,,,-99.99,,2013-02-13 10:11:00,
2013-02-13 03:21:00,11.0,8.0,-100.00,NW,326,16.0,30.0,88,-99.99,,,-99.99,,2013-02-13 10:21:00,
2013-02-13 03:31:00,11.0,8.0,-100.00,NNW,333,20.0,30.0,88,-99.99,,,-99.99,,2013-02-13 10:31:00,
2013-02-13 03:41:00,11.0,8.0,-100.00,NNW,333,20.0,30.0,88,-99.99,,,-99.99,,2013-02-13 10:41:00,
2013-02-13 03:52:00,10.0,7.0,-100.00,NNW,333,13.0,31.0,88,-99.99,,,-99.99,,2013-02-13 10:52:00,
2013-02-13 04:01:00,10.0,7.0,-100.00,NW,313,8.0,19.0,88,-99.99,,,-99.99,,2013-02-13 11:01:00,
2013-02-13 04:11:00,10.0,7.0,-100.00,NW,313,8.0,19.0,88,-99.99,,,-99.99,,2013-02-13 11:11:00,
2013-02-13 04:22:00,10.0,7.0,-100.00,NW,316,7.0,23.0,88,-99.99,,,-99.99,,2013-02-13 11:22:00,
2013-02-13 04:32:00,11.0,8.0,-100.00,NW,322,11.0,26.0,88,-99.99,,,-99.99,,2013-02-13 11:32:00,
2013-02-13 04:42:00,11.0,8.0,-100.00,NW,322,11.0,26.0,88,-99.99,,,-99.99,,2013-02-13 11:42:00,
2013-02-13 04:52:00,11.0,8.0,-100.00,NW,322,12.0,28.0,88,-99.99,,,-99.99,,2013-02-13 11:52:00,
2013-02-13 05:02:00,11.0,8.0,-100.00,NW,319,12.0,26.0,88,-99.99,,,-99.99,,2013-02-13 12:02:00,
2013-02-13 05:11:00,11.0,8.0,-100.00,NW,319,12.0,26.0,88,-99.99,,,-99.99,,2013-02-13 12:11:00,
2013-02-13 05:21:00,11.0,8.0,-100.00,NW,324,13.0,28.0,88,-99.99,,,-99.99,,2013-02-13 12:21:00,
2013-02-13 05:32:00,11.0,8.0,-100.00,NW,320,9.0,21.0,88,-99.99,,,-99.99,,2013-02-13 12:32:00,
2013-02-13 05:42:00,11.0,8.0,-100.00,NW,320,9.0,21.0,88,-99.99,,,-99.99,,2013-02-13 12:42:00,
2013-02-13 05:52:00,11.0,8.0,-100.00,NW,315,9.0,23.0,88,-99.99,,,-99.99,,2013-02-13 12:52:00,
2013-02-13 06:02:00,11.0,8.0,-100.00,NW,321,10.0,28.0,88,-99.99,,,-99.99,,2013-02-13 13:02:00,
2013-02-13 06:11:00,11.0,8.0,-100.00,NW,321,10.0,28.0,88,-99.99,,,-99.99,,2013-02-13 13:11:00,
2013-02-13 06:21:00,11.0,8.0,-100.00,NW,316,8.0,19.0,88,-99.99,,,-99.99,,2013-02-13 13:21:00,
2013-02-13 06:31:00,11.0,8.0,-100.00,NW,324,14.0,30.0,88,-99.99,,,-99.99,,2013-02-13 13:31:00,
2013-02-13 06:41:00,11.0,8.0,-100.00,NW,324,14.0,30.0,88,-99.99,,,-99.99,,2013-02-13 13:41:00,
2013-02-13 06:52:00,11.0,8.0,-100.00,NW,319,9.0,26.0,88,-99.99,,,-99.99,,2013-02-13 13:52:00,
2013-02-13 07:01:00,11.0,8.0,-100.00,NW,322,14.0,32.0,88,-99.99,,,-99.99,,2013-02-13 14:01:00,
2013-02-13 07:11:00,11.0,8.0,-100.00,NW,322,14.0,32.0,88,-99.99,,,-99.99,,2013-02-13 14:11:00,
2013-02-13 07:21:00,11.0,8.0,-100.00,NW,325,17.0,33.0,88,-99.99,,,-99.99,,2013-02-13 14:21:00,
2013-02-13 07:31:00,12.0,9.0,-100.00,NNW,329,22.0,36.0,88,-99.99,,,-99.99,,2013-02-13 14:31:00,
2013-02-13 07:41:00,12.0,9.0,-100.00,NNW,329,22.0,36.0,88,-99.99,,,-99.99,,2013-02-13 14:41:00,
2013-02-13 07:52:00,12.0,9.0,-100.00,NW,326,20.0,32.0,88,-99.99,,,-99.99,,2013-02-13 14:52:00,
2013-02-13 08:01:00,12.0,9.0,-100.00,NW,318,14.0,25.0,88,-99.99,,,-99.99,,2013-02-13 15:01:00,
2013-02-13 08:11:00,12.0,9.0,-100.00,NW,318,14.0,25.0,88,-99.99,,,-99.99,,2013-02-13 15:11:00,
2013-02-13 08:21:00,12.0,9.0,-100.00,NW,309,12.0,24.0,88,-99.99,,,-99.99,,2013-02-13 15:21:00,
2013-02-13 08:31:00,12.0,9.0,-100.00,NW,313,11.0,24.0,88,-99.99,,,-99.99,,2013-02-13 15:31:00,
2013-02-13 08:42:00,12.0,9.0,-100.00,NW,313,11.0,24.0,88,-99.99,,,-99.99,,2013-02-13 15:42:00,
2013-02-13 08:52:00,12.0,9.0,-100.00,NW,323,13.0,26.0,88,-99.99,,,-99.99,,2013-02-13 15:52:00,
2013-02-13 09:01:00,12.0,9.0,-100.00,NW,323,15.0,28.0,88,-99.99,,,-99.99,,2013-02-13 16:01:00,
2013-02-13 09:11:00,12.0,9.0,-100.00,NW,323,15.0,28.0,88,-99.99,,,-99.99,,2013-02-13 16:11:00,
2013-02-13 09:21:00,12.0,9.0,-100.00,NW,317,13.0,27.0,88,-99.99,,,-99.99,,2013-02-13 16:21:00,
2013-02-13 09:31:00,12.0,9.0,-100.00,NW,323,17.0,32.0,88,-99.99,,,-99.99,,2013-02-13 16:31:00,
2013-02-13 09:41:00,12.0,9.0,-100.00,NW,323,17.0,32.0,88,-99.99,,,-99.99,,2013-02-13 16:41:00,
2013-02-13 09:52:00,13.0,10.0,-100.00,NW,326,21.0,33.0,89,-99.99,,,-99.99,,2013-02-13 16:52:00,
2013-02-13 10:01:00,14.0,11.0,-100.00,NNW,328,19.0,36.0,89,-99.99,,,-99.99,,2013-02-13 17:01:00,
2013-02-13 10:11:00,14.0,11.0,-100.00,NNW,328,19.0,36.0,89,-99.99,,,-99.99,,2013-02-13 17:11:00,
2013-02-13 10:21:00,14.0,11.0,-100.00,NW,319,15.0,28.0,89,-99.99,,,-99.99,,2013-02-13 17:21:00,
2013-02-13 10:31:00,15.0,12.0,-100.00,NW,325,21.0,32.0,89,-99.99,,,-99.99,,2013-02-13 17:31:00,
2013-02-13 10:41:00,15.0,12.0,-100.00,NW,325,21.0,32.0,89,-99.99,,,-99.99,,2013-02-13 17:41:00,
2013-02-13 10:52:00,15.0,12.0,-100.00,NW,320,17.0,31.0,88,-99.99,,,-99.99,,2013-02-13 17:52:00,
2013-02-13 11:01:00,15.0,12.0,-100.00,WNW,301,13.0,30.0,89,-99.99,,,-99.99,,2013-02-13 18:01:00,
2013-02-13 11:11:00,15.0,12.0,-100.00,WNW,301,13.0,30.0,89,-99.99,,,-99.99,,2013-02-13 18:11:00,
2013-02-13 11:22:00,16.0,13.0,-100.00,NW,319,12.0,24.0,88,-99.99,,,-99.99,,2013-02-13 18:22:00,
2013-02-13 11:31:00,16.0,13.0,-100.00,NW,324,17.0,38.0,89,-99.99,,,-99.99,,2013-02-13 18:31:00,
2013-02-13 11:41:00,16.0,13.0,-100.00,NW,324,17.0,38.0,89,-99.99,,,-99.99,,2013-02-13 18:41:00,
2013-02-13 11:52:00,17.0,14.0,-100.00,NW,316,14.0,28.0,89,-99.99,,,-99.99,,2013-02-13 18:52:00,
2013-02-13 12:01:00,19.0,16.0,-100.00,NW,318,12.0,29.0,89,-99.99,,,-99.99,,2013-02-13 19:01:00,
2013-02-13 12:11:00,19.0,16.0,-100.00,NW,318,12.0,29.0,89,-99.99,,,-99.99,,2013-02-13 19:11:00,
2013-02-13 12:21:00,20.0,17.0,-100.00,NW,320,14.0,34.0,88,-99.99,,,-99.99,,2013-02-13 19:21:00,
2013-02-13 12:31:00,20.0,17.0,-100.00,NW,318,14.0,39.0,87,-99.99,,,-99.99,,2013-02-13 19:31:00,
2013-02-13 12:41:00,20.0,17.0,-100.00,NW,318,14.0,39.0,87,-99.99,,,-99.99,,2013-02-13 19:41:00,
2013-02-13 12:52:00,19.0,16.0,-100.00,NW,318,13.0,28.0,87,-99.99,,,-99.99,,2013-02-13 19:52:00,
2013-02-13 13:02:00,19.0,16.0,-100.00,NW,316,13.0,34.0,87,-99.99,,,-99.99,,2013-02-13 20:02:00,
2013-02-13 13:11:00,19.0,16.0,-100.00,NW,316,13.0,34.0,87,-99.99,,,-99.99,,2013-02-13 20:11:00,
2013-02-13 13:21:00,18.0,15.0,-100.00,NW,316,13.0,34.0,87,-99.99,,,-99.99,,2013-02-13 20:21:00,
2013-02-13 13:31:00,18.0,15.0,-100.00,NW,317,16.0,37.0,87,-99.99,,,-99.99,,2013-02-13 20:31:00,
2013-02-13 13:41:00,18.0,15.0,-100.00,NW,317,16.0,37.0,87,-99.99,,,-99.99,,2013-02-13 20:41:00,
2013-02-13 13:52:00,17.0,14.0,-100.00,NW,320,17.0,37.0,87,-99.99,,,-99.99,,2013-02-13 20:52:00,
2013-02-13 14:01:00,17.0,14.0,-100.00,NW,314,16.0,32.0,88,-99.99,,,-99.99,,2013-02-13 21:01:00,
2013-02-13 14:11:00,17.0,14.0,-100.00,NW,314,16.0,32.0,88,-99.99,,,-99.99,,2013-02-13 21:11:00,
2013-02-13 14:21:00,18.0,15.0,-100.00,NW,313,12.0,26.0,87,-99.99,,,-99.99,,2013-02-13 21:21:00,
2013-02-13 14:31:00,17.0,14.0,-100.00,NW,309,15.0,34.0,87,-99.99,,,-99.99,,2013-02-13 21:31:00,
2013-02-13 14:42:00,17.0,14.0,-100.00,NW,309,15.0,34.0,87,-99.99,,,-99.99,,2013-02-13 21:42:00,
2013-02-13 14:52:00,17.0,14.0,-100.00,NW,315,18.0,38.0,88,-99.99,,,-99.99,,2013-02-13 21:52:00,
2013-02-13 15:02:00,17.0,14.0,-100.00,NW,312,18.0,36.0,88,-99.99,,,-99.99,,2013-02-13 22:02:00,
2013-02-13 15:11:00,17.0,14.0,-100.00,NW,312,18.0,36.0,88,-99.99,,,-99.99,,2013-02-13 22:11:00,
2013-02-13 15:21:00,17.0,14.0,-100.00,NW,315,18.0,39.0,88,-99.99,,,-99.99,,2013-02-13 22:21:00,
2013-02-13 15:31:00,17.0,14.0,-100.00,NW,315,20.0,40.0,88,-99.99,,,-99.99,,2013-02-13 22:31:00,
2013-02-13 15:42:00,17.0,14.0,-100.00,NW,315,20.0,40.0,88,-99.99,,,-99.99,,2013-02-13 22:42:00,
2013-02-13 15:52:00,17.0,14.0,-100.00,NW,313,21.0,36.0,88,-99.99,,,-99.99,,2013-02-13 22:52:00,
2013-02-13 16:01:00,16.0,13.0,-100.00,NW,319,24.0,40.0,89,-99.99,,,-99.99,,2013-02-13 23:01:00,
2013-02-13 16:11:00,16.0,13.0,-100.00,NW,319,24.0,40.0,89,-99.99,,,-99.99,,2013-02-13 23:11:00,
2013-02-13 16:21:00,16.0,13.0,-100.00,NW,312,21.0,39.0,89,-99.99,,,-99.99,,2013-02-13 23:21:00,
2013-02-13 16:31:00,17.0,14.0,-100.00,NW,314,19.0,38.0,89,-99.99,,,-99.99,,2013-02-13 23:31:00,
2013-02-13 16:41:00,17.0,14.0,-100.00,NW,314,19.0,38.0,89,-99.99,,,-99.99,,2013-02-13 23:41:00,
2013-02-13 16:52:00,16.0,13.0,-100.00,NW,316,18.0,35.0,89,-99.99,,,-99.99,,2013-02-13 23:52:00,
2013-02-13 17:01:00,16.0,14.0,-100.00,NW,317,20.0,35.0,90,-99.99,,,-99.99,,2013-02-14 00:01:00,
2013-02-13 17:11:00,16.0,14.0,-100.00,NW,317,20.0,35.0,90,-99.99,,,-99.99,,2013-02-14 00:11:00,
2013-02-13 17:21:00,16.0,14.0,-100.00,NW,320,16.0,32.0,90,-99.99,,,-99.99,,2013-02-14 00:21:00,
2013-02-13 17:31:00,16.0,14.0,-100.00,NW,312,16.0,30.0,90,-99.99,,,-99.99,,2013-02-14 00:31:00,
2013-02-13 17:42:00,16.0,14.0,-100.00,NW,312,16.0,30.0,90,-99.99,,,-99.99,,2013-02-14 00:42:00,
2013-02-13 17:52:00,16.0,14.0,-100.00,NW,306,14.0,37.0,90,-99.99,,,-99.99,,2013-02-14 00:52:00,
2013-02-13 18:01:00,16.0,14.0,-100.00,NW,314,15.0,29.0,90,-99.99,,,-99.99,,2013-02-14 01:01:00,
2013-02-13 18:11:00,16.0,14.0,-100.00,NW,314,15.0,29.0,90,-99.99,,,-99.99,,2013-02-14 01:11:00,
2013-02-13 18:21:00,16.0,14.0,-100.00,NW,320,14.0,29.0,90,-99.99,,,-99.99,,2013-02-14 01:21:00,
2013-02-13 18:31:00,16.0,14.0,-100.00,NW,320,14.0,29.0,90,-99.99,,,-99.99,,2013-02-14 01:31:00,
2013-02-13 18:41:00,16.0,14.0,-100.00,NW,320,14.0,29.0,90,-99.99,,,-99.99,,2013-02-14 01:41:00,
2013-02-13 18:51:00,16.0,14.0,-100.00,NW,325,16.0,32.0,90,-99.99,,,-99.99,,2013-02-14 01:51:00,
2013-02-13 19:01:00,16.0,14.0,-100.00,NW,324,16.0,36.0,90,-99.99,,,-99.99,,2013-02-14 02:01:00,
2013-02-13 19:11:00,16.0,14.0,-100.00,NW,324,16.0,36.0,90,-99.99,,,-99.99,,2013-02-14 02:11:00,
2013-02-13 19:21:00,16.0,14.0,-100.00,NW,318,14.0,29.0,90,-99.99,,,-99.99,,2013-02-14 02:21:00,
2013-02-13 19:31:00,16.0,14.0,-100.00,NW,316,13.0,36.0,90,-99.99,,,-99.99,,2013-02-14 02:31:00,
2013-02-13 19:41:00,16.0,14.0,-100.00,NW,316,13.0,36.0,90,-99.99,,,-99.99,,2013-02-14 02:41:00,
2013-02-13 19:52:00,16.0,14.0,-100.00,NW,316,13.0,36.0,90,-99.99,,,-99.99,,2013-02-14 02:52:00,
2013-02-13 20:02:00,16.0,14.0,-100.00,NW,319,14.0,26.0,90,-99.99,,,-99.99,,2013-02-14 03:02:00,
2013-02-13 20:11:00,16.0,14.0,-100.00,NW,319,14.0,26.0,90,-99.99,,,-99.99,,2013-02-14 03:11:00,
2013-02-13 20:21:00,16.0,14.0,-100.00,NW,320,15.0,29.0,90,-99.99,,,-99.99,,2013-02-14 03:21:00,
2013-02-13 20:31:00,16.0,14.0,-100.00,NW,316,12.0,23.0,90,-99.99,,,-99.99,,2013-02-14 03:31:00,
2013-02-13 20:42:00,16.0,14.0,-100.00,NW,316,12.0,23.0,90,-99.99,,,-99.99,,2013-02-14 03:42:00,
2013-02-13 20:52:00,16.0,14.0,-100.00,NW,307,9.0,23.0,90,-99.99,,,-99.99,,2013-02-14 03:52:00,
2013-02-13 21:01:00,16.0,14.0,-100.00,NW,307,10.0,24.0,90,-99.99,,,-99.99,,2013-02-14 04:01:00,
2013-02-13 21:11:00,16.0,14.0,-100.00,NW,307,10.0,24.0,90,-99.99,,,-99.99,,2013-02-14 04:11:00,
2013-02-13 21:21:00,16.0,14.0,-100.00,NW,304,11.0,21.0,90,-99.99,,,-99.99,,2013-02-14 04:21:00,
2013-02-13 21:31:00,16.0,14.0,-100.00,NW,307,8.0,24.0,90,-99.99,,,-99.99,,2013-02-14 04:31:00,
2013-02-13 21:41:00,16.0,14.0,-100.00,NW,307,8.0,24.0,90,-99.99,,,-99.99,,2013-02-14 04:41:00,
2013-02-13 21:52:00,16.0,14.0,-100.00,NW,306,8.0,22.0,90,-99.99,,,-99.99,,2013-02-14 04:52:00,
2013-02-13 22:01:00,16.0,14.0,-100.00,WNW,303,9.0,19.0,90,-99.99,,,-99.99,,2013-02-14 05:01:00,
2013-02-13 22:11:00,16.0,14.0,-100.00,WNW,303,9.0,19.0,90,-99.99,,,-99.99,,2013-02-14 05:11:00,
2013-02-13 22:21:00,16.0,14.0,-100.00,NW,304,10.0,25.0,90,-99.99,,,-99.99,,2013-02-14 05:21:00,
2013-02-13 22:31:00,16.0,14.0,-100.00,NW,310,12.0,28.0,90,-99.99,,,-99.99,,2013-02-14 05:31:00,
2013-02-13 22:41:00,16.0,14.0,-100.00,NW,310,12.0,28.0,90,-99.99,,,-99.99,,2013-02-14 05:41:00,
2013-02-13 22:52:00,16.0,14.0,-100.00,NW,307,10.0,22.0,90,-99.99,,,-99.99,,2013-02-14 05:52:00,
2013-02-13 23:01:00,16.0,14.0,-100.00,NW,313,10.0,27.0,90,-99.99,,,-99.99,,2013-02-14 06:01:00,
2013-02-13 23:11:00,16.0,14.0,-100.00,WNW,301,10.0,22.0,90,-99.99,,,-99.99,,2013-02-14 06:11:00,
2013-02-13 23:21:00,16.0,14.0,-100.00,WNW,301,10.0,22.0,90,-99.99,,,-99.99,,2013-02-14 06:21:00,
2013-02-13 23:31:00,15.0,13.0,-100.00,NW,309,12.0,29.0,90,-99.99,,,-99.99,,2013-02-14 06:31:00,
2013-02-13 23:41:00,15.0,13.0,-100.00,NW,309,12.0,29.0,90,-99.99,,,-99.99,,2013-02-14 06:41:00,
2013-02-13 23:52:00,15.0,13.0,-100.00,NW,308,9.0,27.0,90,-99.99,,,-99.99,,2013-02-14 06:52:00,